Location: Hamburg
(53.5554°N, 9.9941°E)
Time: 18:51:12
(UTC+01:00)

ISS - Pass Details

Date: 12 November 2017
Orbit: 402 x 407 km, 51.6° (Epoch: 19 November)

Event Time Altitude Azimuth Distance (km) Brightness Sun altitude
Exits shadow 04:20:03 13° 100° (E) 1,271 -0.6 -29.6°
Drops below altitude 10° 04:20:26 11° 99° (E) 1,427 -0.3 -29.5°
Sets 04:22:36 0° 96° (E) 2,316 1.1 -29.2°
